Regional Weather Roundup
Issued by NWS

Home | Current Version | Previous Version | Text Only | Print | Product List | Glossary Off
Versions: 1 2 3 4 5 6 7 8 9 10 11 12 13 14 15 16 17 18 19 20 21 22 23 24 25 26 27 28 29 30 31 32 33 34 35 36 37 38 39 40 41 42 43 44 45 46 47 48 49 50

000
ASUS43 KMPX 060401
RWRMN
WEATHER ROUNDUP FOR MINNESOTA
NATIONAL WEATHER SERVICE TWIN CITIES/CHANHASSEN MN
1000 PM CST THU MAR 05 2015


NOTE: "FAIR" INDICATES FEW OR NO CLOUDS BELOW 12,000 FEET WITH NO
SIGNIFICANT WEATHER AND/OR OBSTRUCTIONS TO VISIBILITY. N/A MEANS
CURRENT SKY AND/OR WEATHER CONDITIONS ARE NOT AVAILABLE.

MNZ060>063-068>070-060500-
   Twin Cities Metro

CITY           SKY/WX    TMP DP  RH WIND       PRES   REMARKS
TWIN CITIES    FAIR      10   1  67 S9        30.34F WCI  -3
ST PAUL        FAIR       8   2  76 SE9       30.37F WCI  -5
CRYSTAL        PTCLDY    11   1  64 S9        30.31F WCI  -2
BLAINE         PTCLDY    12   3  67 S9        30.31F WCI   0
LAKEVILLE      CLEAR      7   0  72 S7        30.34F WCI  -5
EDEN PRAIRIE   PTCLDY     9   1  70 S9        30.32F WCI  -4
SOUTH ST PAUL  FAIR       9   1  71 SE6       30.35F WCI  -1
LAKE ELMO      FAIR       9   1  72 S12       30.35F WCI  -6
$$
MNZ001>005-007-008-013>017-022>024-027-028-060500-
   Northwest Minnesota

CITY           SKY/WX    TMP DP  RH WIND       PRES   REMARKS
BEMIDJI        CLEAR     10   1  67 S9        30.07F WCI  -4
HALLOCK        CLOUDY    18  10  73 S24       29.94F WCI   0
ROSEAU         PTCLDY    16   7  67 S17       29.96F WCI   0
WARROAD        PTCLDY    16   7  67 S18G26    29.95F WCI  -1
THIEF RVR FALL PTCLDY    16   9  73 S20       30.01F WCI  -1
CROOKSTON      PTCLDY    16   9  73 S24       30.05F WCI  -3
FOSSTON        CLEAR     12   5  73 S20G26    30.06F WCI  -6
DETROIT LAKES  PTCLDY    12   5  73 S8        30.12S WCI   1
MOORHEAD       CLEAR     16  10  79 S14       30.12F WCI   1
PARK RAPIDS    CLEAR      8  -2  63 S10       30.11F WCI  -6
MAHNOMEN       FAIR      12   5  72 S17       30.09F WCI  -5
$$
MNZ006-009>011-018-025>026-060500-
   North Central Minnesota

CITY           SKY/WX    TMP DP  RH WIND       PRES   REMARKS
BAUDETTE       MOCLDY    12   0  58 S21G26    29.98F WCI  -7
FLAG ISLAND    CLOUDY    14   7  73 SW17G23   29.93F WCI  -3
INTL FALLS     PTCLDY    11  -4  51 SW15G24   30.04F WCI  -5
WASKISH        FAIR      12   1  62 S8        30.05F WCI   1
BIG FORK       CLEAR      9  -4  56 S10G16    30.10F WCI  -6
LONGVILLE      CLEAR      9   0  66 S8        30.14F WCI  -4
GRAND RAPIDS   PTCLDY     7  -2  66 S12       30.13F WCI  -9
CRANE LAKE     PTCLDY     9  -8  47 S8        30.12F WCI  -4
ORR            PTCLDY     7  -8  51 S9        30.08F WCI  -7
COOK           PTCLDY     7  -6  56 S9        30.12F WCI  -7
WALKER         FAIR       9  -1  62 S6        30.11F WCI  -1
$$
MNZ012-019>021-037-060500-
   Northeast Minnesota

CITY           SKY/WX    TMP DP  RH WIND       PRES   REMARKS
DULUTH         CLEAR      6  -5  60 SW14      30.19F WCI -11
ELY            CLEAR      7  -6  56 SW10G17   30.13F WCI  -8
HIBBING        PTCLDY     5  -6  60 S7        30.15F WCI  -7
EVELETH        PTCLDY     7  -4  61 S9        30.16F WCI  -7
DULUTH HARBOR  PTCLDY     7  -2  66 CALM      30.28F
TWO HARBORS    PTCLDY     9  -4  56 SW6       30.20F WCI  -1
SILVER BAY     PTCLDY     9  -6  52 SW3       30.18F
GRAND MARAIS     N/A     13  -4  46 W9G24     30.22S WCI   1
G MARAIS ARPRT PTCLDY     3 -11  51 SW7       30.11S WCI  -9
$$
MNZ029>031-032-039>041-046>048-054>057-064-060500-
   West Central Minnesota

CITY           SKY/WX    TMP DP  RH WIND       PRES   REMARKS
FERGUS FALLS   CLEAR     12   3  67 S14       30.18F WCI  -3
WHEATON        CLEAR     12   7  79 SE17      30.16F WCI  -5
MORRIS         CLEAR     10   5  79 SE12      30.16F WCI  -4
ALEXANDRIA     CLEAR     12   3  67 S13       30.16F WCI  -3
ELBOW LAKE     FAIR      12   5  73 SE16      30.14F WCI  -4
WADENA         PTCLDY     9   1  72 S9        30.14F WCI  -5
GLENWOOD       CLEAR     12   3  67 S14       30.18F WCI  -3
APPLETON       CLEAR     16   7  67 SE9       30.18F WCI   4
BENSON         CLEAR     16   5  62 S10       30.19F WCI   3
ORTONVILLE     CLEAR     12   5  73 SE12      30.16F WCI  -2
MADISON        CLEAR     16   9  73 S12       30.18F WCI   3
WILLMAR        FAIR      14   5  67 S13       30.23F WCI   0
$$
MNZ033>034-036-042>043-049>051-058-059-060500-
   Central Minnesota

CITY           SKY/WX    TMP DP  RH WIND       PRES   REMARKS
ST CLOUD       PTCLDY     6   0  76 S9        30.25F WCI  -8
SAUK CENTRE    FAIR       7   1  75 SE7       30.20F WCI  -5
PAYNESVILLE    CLEAR     10   2  73 SE12      30.23F WCI  -5
AITKIN         PTCLDY     9   0  66 S7        30.18F WCI  -3
PINE RIVER     CLEAR      3  -2  78 S6        30.18F WCI  -8
BRAINERD       CLEAR      5  -2  72 S9        30.19F WCI  -9
STAPLES        PTCLDY     7   1  78 S10       30.16F WCI  -8
LONG PRAIRIE   FAIR       5   0  78 SE8       30.19F WCI  -8
LITTLE FALLS   PTCLDY     7   0  72 SE6       30.23F WCI  -3
LITCHFIELD     CLEAR     12   5  73 CALM      30.25F
BUFFALO        CLEAR     10   1  67 SE5       30.29F WCI   2
MAPLE LAKE     CLEAR      9   3  76 S6        30.27F WCI   0
$$
MNZ037-044-045-052-053-060500-
   East Central Minnesota

CITY           SKY/WX    TMP DP  RH WIND       PRES   REMARKS
PRINCETON      PTCLDY    10   1  67 S9        30.26F WCI  -2
MORA           PTCLDY     7   0  72 S6        30.28F WCI  -3
CAMBRIDGE      PTCLDY     9  -2  61 S6        30.27F WCI  -1
RUSH CITY      PTCLDY     5  -3  70 S7        30.29F WCI  -7
MOOSE LAKE     CLEAR      3  -4  72 CALM      30.23F
HINCKLEY       FAIR       3  -4  72 S5        30.28F WCI  -6
CLOQUET        FAIR       7  -4  61 S10       30.21F WCI  -8
MCGREGOR       CLEAR      5   0  78 S5        30.21F WCI  -4
$$
MNZ071>073-080-081-089-090-097-098-060500-
   Southwest Minnesota

CITY           SKY/WX    TMP DP  RH WIND       PRES   REMARKS
MONTEVIDEO     CLEAR     16   7  67 S12       30.21F WCI   3
GRANITE FALLS  CLEAR     14   7  73 SE13      30.23F WCI   0
CANBY          CLEAR     17   7  66 SE7       30.18F WCI   7
MARSHALL       CLEAR     18   7  62 S16       30.20F WCI   3
REDWOOD FALLS  CLEAR     13   5  70 S14       30.25F WCI  -2
OLIVIA         CLEAR     14   7  73 S13       30.24F WCI   0
PIPESTONE      CLEAR     18   9  68 S17       30.18F WCI   2
WINDOM         CLEAR     16   7  67 S15G22    30.24F WCI   1
WORTHINGTON    CLEAR     16   5  62 S20       30.24F WCI  -1
JACKSON        CLEAR     18   5  57 S15       30.27F WCI   3
TRACY          CLEAR     18   8  65 S20G29    30.20F WCI   1
SLAYTON        CLEAR     17   6  61 S15       30.21F WCI   2
$$
MNZ065>067-074>077-082>085-091>093-060500-
   South Central Minnesota

CITY           SKY/WX    TMP DP  RH WIND       PRES   REMARKS
MANKATO        CLEAR     10   1  67 S12       30.32F WCI  -4
NEW ULM        CLEAR     12   3  67 S13       30.28F WCI  -3
ST JAMES       CLEAR     16   7  67 SE13      30.30F WCI   2
FAIRMONT       CLEAR     12   3  67 S15       30.29F WCI  -4
GLENCOE        CLEAR     12   5  73 SE7       30.28F WCI   2
FARIBAULT      CLEAR      9   1  72 S10G16    30.34F WCI  -6
OWATONNA       CLEAR      9   1  72 S15       30.34F WCI  -8
WASECA         CLEAR     12   5  73 S16       30.35F WCI  -4
ALBERT LEA     FAIR       7   1  78 S9        30.35F WCI  -7
$$
MNZ078>079-086>088-094>096-060500-
   Southeast Minnesota

CITY           SKY/WX    TMP DP  RH WIND       PRES   REMARKS
ROCHESTER      MOCLDY     1  -5  75 S14       30.37F WCI -17
RED WING       PTCLDY     7  -2  66 SE5       30.39F WCI  -2
STANTON        PTCLDY     9   1  71 S9        30.34F WCI  -4
DODGE CENTER   PTCLDY     5   0  78 S17       30.34F WCI -14
WINONA         PTCLDY     5  -2  72 SE5       30.46F WCI  -4
AUSTIN         PTCLDY     3  -2  78 S12       30.37F WCI -13
PRESTON        MOCLDY     2  -4  76 S13       30.39F WCI -16
$$
ABBREVIATIONS USED IN REMARKS
   TC - TEMPERATURES IN CELSIUS
  WCI - WIND CHILL INDEX
   HX - HEAT INDEX
  VSB - VISIBILITY
$$



USA.gov is the U.S. government's official web portal to all federal, state and local government web resources and services.